Wind_Speed
18 18 18 18 16 12 10 8 7 7 8 8 8 9 11 13 13 14 15 15 16 16 16 16 17 16 16 14 13 13 12 11 10 9 8 6 4 2 2 2 3 4 5 7 8 8 9 9 9 9 9 9 9 9 9 10 10 10 10 9 9 10 10 9 9 8 7 7 7
15 15 14 12 10 9 9 7 6 7 7 7 8 9 11 13 14 15 16 16 16 16 16 17 17 16 16 14 13 12 11 10 8 7 5 3 2 2 3 3 4 5 5 5 6 6 6 6 7 7 6 6 6 6 6 7 7 6 6 6 7 7 7 5 4 3 2 1 1
14 13 11 10 9 9 9 8 7 7 7 8 8 10 12 13 15 15 16 16 17 17 17 17 16 15 15 14 12 11 9 7 6 4 2 1 0 2 3 3 4 4 4 4 4 5 5 6 6 5 4 4 4 3 2 2 2 2 1 2 2 1 1 1 2 3 4 4 4
12 11 11 11 11 10 9 9 9 9 9 10 10 12 13 14 15 16 17 17 17 17 17 16 15 14 13 12 10 9 8 6 5 3 3 3 3 3 3 2 2 3 3 4 4 4 4 4 2 1 1 2 3 4 4 4 4 4 4 5 5 6 6 6 7 7 8 8 8
11 12 13 13 12 11 10 10 11 11 11 12 13 15 15 16 16 17 17 18 17 16 15 14 14 13 12 11 10 9 8 7 6 6 6 6 6 6 5 4 4 4 3 3 2 1 2 3 4 6 7 8 8 8 8 8 7 7 7 8 8 9 9 9 9 9 9 9 9
15 15 15 14 13 13 12 12 13 13 13 14 16 17 18 18 18 18 18 17 16 15 14 13 13 13 12 12 11 11 11 10 10 9 10 10 10 9 8 7 6 6 6 6 7 8 9 9 10 11 11 10 10 10 9 8 8 8 8 8 8 8 8 8 8 8 8 9 9
20 19 18 16 15 15 16 15 15 15 16 17 18 19 20 19 19 19 18 16 15 14 13 13 13 14 14 14 14 14 14 14 14 13 13 13 12 11 10 10 10 11 11 11 12 12 11 11 12 12 11 11 10 9 8 7 7 7 7 8 7 7 7 7 7 7 8 9 9
22 21 20 19 18 18 19 19 19 19 19 20 20 21 21 20 20 18 16 15 15 15 14 15 16 16 16 17 17 17 17 17 17 16 15 14 14 13 13 13 13 13 12 12 11 10 10 9 10 10 9 9 8 7 6 6 5 6 6 6 6 6 6 7 7 7 8 9 9
23 22 21 20 20 21 21 21 22 22 22 22 22 21 21 20 20 19 18 17 17 17 17 18 18 19 19 19 20 19 19 18 17 17 16 15 14 13 13 12 11 10 9 9 8 7 7 7 7 8 7 7 7 6 5 5 5 5 5 6 6 6 7 7 8 8 9 9 10
24 23 22 22 22 22 23 23 24 24 24 24 23 22 22 21 21 21 21 21 20 20 20 20 20 20 20 20 20 19 18 17 16 15 14 13 12 11 10 9 9 8 8 7 7 6 6 6 7 7 7 7 7 6 6 6 6 6 6 6 7 8 9 9 9 9 9 10 10
26 25 24 24 23 24 24 25 25 25 25 25 24 23 23 23 23 23 23 23 22 21 21 20 20 20 20 19 18 17 16 15 14 13 12 11 10 10 9 9 8 8 8 8 8 8 8 8 9 9 8 8 8 8 7 7 7 7 7 7 8 9 9 10 10 10 10 10 10
27 26 25 25 25 25 25 26 26 26 26 26 25 24 24 24 24 24 24 23 22 21 20 19 18 18 18 17 16 15 14 13 12 12 11 11 10 10 10 9 9 9 10 10 10 10 10 10 10 10 10 9 8 8 8 7 7 7 7 7 7 8 8 9 10 10 10 10 10
28 27 26 25 25 25 26 26 26 26 26 26 25 24 24 24 23 23 22 21 20 19 18 17 16 16 16 16 15 14 13 13 12 12 12 11 11 11 10 10 10 10 10 10 10 10 10 10 9 9 9 8 8 8 7 7 7 7 7 7 7 7 7 8 8 9 9 9 9
27 26 25 25 25 25 25 25 25 25 25 25 24 24 23 23 22 21 20 20 19 18 17 16 16 15 15 15 15 14 14 13 13 13 13 12 12 12 11 11 11 11 10 10 9 9 9 9 8 8 8 7 7 7 7 7 7 7 7 7 7 7 7 7 8 8 8 9 9
26 25 24 24 24 24 25 25 24 24 24 24 24 23 22 22 21 20 20 20 19 18 17 16 16 16 16 15 15 15 15 14 14 14 14 14 13 12 12 12 11 11 10 9 9 8 8 8 7 7 7 7 6 6 6 6 6 6 7 7 7 7 7 7 8 8 8 9 9
26 25 24 24 24 25 25 25 24 24 24 24 23 23 22 21 20 20 20 19 19 18 17 16 16 16 16 16 16 15 15 15 15 15 14 14 13 13 12 11 11 10 9 9 8 8 8 7 7 7 7 6 6 6 6 6 6 6 6 6 7 7 8 8 8 9 9 10 10
27 26 25 25 26 26 26 26 25 25 25 25 24 23 22 21 21 20 20 19 18 17 17 16 16 16 17 16 16 15 15 15 15 15 14 14 13 12 12 11 11 10 9 8 8 7 7 7 6 6 6 6 6 7 7 7 6 6 6 7 7 7 8 8 9 9 10 10 11
27 27 27 27 27 27 27 27 27 26 26 25 24 23 22 22 21 21 20 19 18 17 17 17 16 16 16 16 16 16 16 16 15 15 14 13 13 12 12 12 11 10 9 8 8 7 7 7 7 6 6 7 7 7 7 7 7 7 8 8 8 8 9 9 9 9 10 10 11
27 27 27 27 28 28 28 28 28 27 26 25 24 23 23 22 21 20 20 19 18 18 17 17 17 17 17 17 17 16 16 15 15 14 14 13 13 13 13 12 11 10 9 8 8 7 7 7 7 7 7 7 7 8 8 8 8 8 9 9 10 10 10 10 10 10 10 11 11
25 25 25 26 28 29 29 28 27 26 26 25 25 24 24 23 22 21 20 19 18 18 18 18 18 18 18 17 17 17 16 15 14 14 13 13 13 13 13 12 11 10 9 8 8 8 8 8 8 9 9 9 9 9 9 9 9 9 10 10 11 11 12 12 12 12 12 11 11
24 24 24 25 27 28 28 28 27 26 26 25 25 24 23 22 22 21 20 19 18 18 18 18 19 19 18 18 17 16 15 14 13 13 13 12 12 12 12 10 9 9 8 8 8 9 10 10 11 11 11 11 11 11 12 12 12 12 12 12 12 12 13 13 14 14 13 13 13
24 24 24 25 26 27 26 25 25 24 24 24 24 23 22 21 21 20 19 18 18 18 19 19 19 18 18 17 17 15 14 13 12 12 12 12 12 11 9 8 8 7 8 8 9 10 11 12 12 13 13 13 13 14 14 14 14 14 14 14 14 14 14 15 15 15 15 15 14
24 25 25 26 26 26 25 23 23 22 22 22 21 20 20 20 19 19 18 18 18 18 18 18 18 17 17 16 15 13 13 12 12 12 12 11 10 9 8 7 7 7 8 8 10 11 12 12 12 13 13 14 14 15 15 16 16 16 17 17 17 17 17 16 16 16 16 15 15
26 26 26 26 26 26 25 24 23 23 22 21 20 20 19 19 18 18 17 18 18 18 17 17 16 16 15 14 13 12 12 12 13 12 12 11 9 8 7 6 7 7 8 9 11 11 11 11 11 12 13 13 14 14 15 15 16 17 18 19 19 19 19 18 17 16 16 15 15
26 26 26 26 26 25 25 25 24 24 23 22 21 20 19 19 18 18 17 17 17 16 16 15 14 14 13 13 13 12 13 13 13 13 12 10 9 8 7 7 7 7 7 9 11 11 11 10 10 11 12 13 13 13 13 14 15 16 17 18 19 20 19 19 18 17 16 15 14
26 25 25 25 25 25 25 25 24 24 23 22 21 20 19 19 18 17 17 16 16 15 14 14 14 13 13 13 13 14 14 14 13 13 12 11 10 9 9 8 8 7 8 10 11 11 11 10 10 10 11 12 12 12 12 13 14 15 17 18 18 19 18 18 18 17 16 15 14
25 24 24 24 25 25 25 24 24 23 23 22 21 20 20 19 18 18 17 16 16 15 15 15 15 15 14 14 15 15 15 14 14 13 12 11 11 11 11 10 9 9 9 10 12 12 11 11 10 10 11 11 11 11 11 13 14 16 17 18 18 17 17 17 17 17 16 16 14
25 24 24 25 25 25 24 23 23 23 22 22 21 20 19 19 19 18 18 17 16 16 16 16 16 15 15 16 16 16 15 14 14 13 12 12 11 12 11 11 10 9 10 11 12 12 12 11 11 10 10 10 10 10 11 13 15 17 18 18 17 16 16 16 16 16 16 16 15
25 25 25 25 25 24 23 23 23 22 21 20 20 19 19 19 19 19 19 18 18 18 18 17 16 16 17 17 17 16 15 14 13 13 12 12 12 12 12 12 11 10 10 11 12 12 12 11 11 10 9 9 9 10 11 13 16 17 18 17 16 15 15 15 16 16 16 16 16
25 26 26 26 25 24 23 22 22 21 20 19 19 19 19 19 19 19 19 19 19 18 17 16 16 17 17 17 16 15 15 14 13 13 13 13 13 13 13 12 11 11 11 12 12 12 12 11 11 10 9 7 9 10 12 14 16 18 18 16 15 14 15 15 15 15 16 16 16
25 25 25 25 24 24 23 21 20 20 19 19 19 19 19 20 20 19 19 18 18 16 15 15 16 16 16 15 15 15 15 14 14 14 14 14 14 14 13 13 12 11 12 12 13 12 12 11 10 9 7 6 8 10 12 15 17 17 17 15 14 14 15 15 15 15 15 16 16
24 24 24 24 24 23 22 20 20 19 19 19 19 19 20 20 19 19 18 17 16 16 15 15 16 16 15 15 15 15 15 15 15 15 15 15 14 14 13 12 12 12 12 13 13 12 11 11 10 8 6 6 8 10 13 15 16 16 16 14 14 14 15 15 15 15 15 16 16
23 23 23 23 23 22 21 20 19 19 19 19 20 20 20 19 19 18 18 17 16 16 16 16 16 16 15 15 15 15 15 15 15 15 14 14 14 13 13 12 12 12 13 13 13 12 11 11 10 7 6 7 8 10 12 14 15 15 15 14 14 14 15 15 16 16 16 16 16
22 22 22 22 22 21 20 20 19 19 19 20 20 20 20 19 19 19 18 17 16 16 16 15 15 15 15 14 14 15 15 15 14 14 14 14 13 13 13 12 12 12 13 13 13 12 12 11 9 8 7 8 9 10 11 13 14 15 15 14 14 15 15 16 16 16 16 16 16
21 22 22 22 21 20 20 20 19 20 20 21 21 20 19 19 19 19 18 17 16 15 15 15 15 14 14 14 14 15 15 15 15 15 14 14 14 14 13 13 12 12 13 14 14 13 12 11 10 9 9 10 9 9 10 12 13 14 14 15 15 15 16 16 17 17 17 17 17
21 21 21 21 21 20 20 20 20 20 21 21 21 20 20 19 19 18 17 16 15 16 16 15 15 15 16 16 16 16 16 16 15 15 15 14 15 15 14 13 12 12 13 15 14 14 13 12 12 11 11 11 10 9 10 12 13 14 15 15 16 16 17 17 18 18 18 19 19
21 21 21 21 21 21 20 20 21 21 22 21 21 20 20 19 19 18 17 16 16 17 16 16 16 17 17 17 17 16 16 16 16 16 16 16 16 16 15 13 12 12 13 15 15 14 14 14 14 14 13 12 11 11 11 13 14 15 15 15 16 16 17 18 18 19 19 19 19
20 20 20 21 21 20 20 20 21 21 21 21 20 19 19 19 19 18 17 16 17 17 17 17 17 17 17 16 16 15 16 16 16 17 17 17 17 17 16 15 13 13 13 15 15 14 14 14 15 15 14 13 13 13 13 14 15 15 15 15 15 15 16 17 17 18 18 19 19
20 19 20 20 20 20 20 20 21 21 20 20 19 19 19 19 19 18 17 16 16 17 17 17 18 17 16 15 15 15 15 16 16 17 18 18 17 17 16 15 14 13 13 14 15 15 14 14 14 15 15 14 15 15 16 16 16 16 16 16 15 15 14 15 16 17 17 18 19
19 19 19 19 20 19 20 20 20 19 19 19 19 19 19 18 18 16 16 15 15 16 16 17 17 16 15 15 15 15 16 16 16 17 18 18 18 17 16 16 15 14 13 14 15 15 14 14 14 14 15 15 16 17 17 16 16 17 17 17 17 16 14 14 15 16 17 19 20
19 19 19 19 19 19 19 19 19 18 18 18 19 19 18 17 16 15 15 15 15 16 16 16 16 16 16 16 16 16 16 16 16 17 18 18 18 17 17 16 16 15 14 14 14 15 14 14 14 14 15 15 17 17 16 16 16 17 18 18 16 14 14 14 15 17 19 21 22
Wind_Direction
217 217 217 217 218 212 202 198 203 208 212 218 221 217 212 205 192 182 175 169 165 164 164 165 166 170 173 173 174 176 178 180 182 183 183 181 178 187 228 267 279 285 288 286 284 285 286 288 289 291 291 289 288 288 289 289 289 287 284 281 278 276 278 281 275 272 271 266 268
219 218 217 213 201 187 180 183 188 193 198 204 204 197 189 184 175 167 162 160 160 159 156 153 153 153 154 156 160 164 165 166 169 175 181 190 208 254 285 296 300 300 298 294 293 294 296 297 298 297 295 295 294 292 291 290 288 285 282 281 278 275 274 270 267 269 262 194 231
220 217 212 200 185 179 178 178 179 180 182 185 185 181 176 170 164 157 153 153 154 151 145 139 138 140 142 144 147 149 148 147 149 153 156 160 330 330 328 324 320 317 315 316 315 314 312 309 306 301 294 289 284 282 286 298 285 284 304 328 322 312 326 58 56 59 63 65 67
213 204 192 182 179 176 172 169 167 166 164 163 165 167 166 161 157 151 148 148 145 139 132 128 129 132 135 135 134 133 131 126 119 107 89 71 57 48 36 23 13 6 357 346 336 328 321 313 302 257 175 155 136 116 97 83 76 69 62 58 56 57 58 56 53 51 49 48 51
180 171 165 164 167 165 161 159 157 154 152 151 152 152 152 151 148 145 142 139 134 129 125 123 124 127 128 126 123 120 115 110 102 93 88 86 86 87 86 80 66 48 35 29 40 79 120 135 134 129 125 119 110 99 89 82 75 70 66 63 58 55 53 51 48 44 40 37 36
140 140 143 149 151 151 150 149 148 146 145 146 145 142 140 139 138 136 134 130 128 126 124 124 125 125 123 120 116 112 108 104 101 98 98 99 100 99 96 89 82 82 91 103 115 122 126 127 122 117 112 105 98 91 85 81 77 74 70 64 58 53 49 45 40 34 31 28 27
125 127 130 135 137 138 139 140 141 140 139 139 136 134 132 132 131 130 128 127 124 123 124 127 127 124 120 116 112 109 107 105 105 104 104 103 103 101 99 99 101 105 108 111 113 114 115 114 110 106 101 96 90 86 82 77 71 66 61 56 50 44 38 34 28 23 20 18 16
121 123 125 128 130 130 129 131 133 134 133 131 129 128 127 127 126 125 124 123 121 122 125 127 125 120 116 114 111 110 109 109 108 107 105 104 104 104 105 106 108 108 107 106 104 102 101 99 95 90 85 80 76 72 66 57 52 47 43 39 32 24 17 14 10 7 5 3 2
116 119 121 123 124 124 124 125 127 128 127 125 123 123 123 122 122 121 120 120 121 124 125 123 120 117 115 113 113 112 112 111 109 108 107 108 108 108 108 107 105 102 99 95 90 86 82 78 74 71 67 62 57 51 42 33 30 29 27 23 15 8 3 360 358 355 353 352 352
112 115 117 117 118 120 121 121 121 122 122 121 121 120 120 119 118 118 119 121 124 124 122 118 117 116 115 114 113 113 112 111 110 110 110 110 108 106 103 99 95 91 86 79 72 66 62 59 60 59 56 51 47 42 35 29 29 31 28 22 14 7 3 0 358 356 354 352 351
110 113 114 114 114 116 117 116 115 116 117 118 117 117 116 116 116 117 120 123 124 120 116 116 116 115 115 113 112 111 111 111 112 112 111 107 103 98 94 89 84 80 75 70 64 61 59 59 59 59 56 52 48 43 39 35 33 33 31 25 15 5 359 356 355 354 352 350 349
107 110 112 113 114 114 113 110 109 110 111 112 112 112 112 112 114 118 121 122 119 115 112 113 113 113 113 111 110 110 111 112 112 110 107 102 97 92 87 81 76 73 71 68 66 66 65 64 62 60 56 52 48 42 36 30 27 25 23 18 10 359 351 346 344 343 342 340 338
104 106 107 109 111 110 108 106 105 105 105 106 107 108 109 111 114 117 118 116 112 109 108 107 108 107 107 107 107 108 108 107 106 104 100 95 90 86 81 76 72 70 69 68 67 66 66 65 62 58 55 50 44 37 29 22 18 15 13 8 1 352 345 339 336 334 332 330 327
103 103 103 105 106 106 104 101 100 100 101 101 103 104 106 109 111 111 110 108 106 104 104 102 101 100 100 101 102 102 101 99 97 95 91 87 83 79 76 73 70 67 66 64 62 61 61 60 59 57 54 49 43 34 26 19 15 12 8 3 357 350 343 337 334 331 329 327 325
100 99 99 101 101 101 100 98 97 97 97 97 99 101 103 103 103 102 101 100 100 100 99 98 97 97 98 99 98 98 96 94 90 87 84 81 78 76 74 72 69 65 63 60 57 55 54 54 53 51 49 47 41 33 26 21 18 13 8 2 356 350 345 341 337 335 334 332 331
96 96 95 95 96 96 95 94 94 93 93 94 96 96 96 96 95 94 93 93 94 95 96 97 98 98 98 97 96 95 93 89 86 82 80 78 76 75 74 72 69 66 63 60 57 54 51 50 47 45 42 38 33 28 22 19 15 10 5 0 355 351 347 344 341 339 337 336 335
92 92 91 91 91 91 90 90 89 89 89 91 92 91 90 90 90 89 89 90 92 94 95 96 97 97 96 95 93 91 88 85 83 80 79 78 77 76 75 73 69 66 61 57 53 51 48 45 42 38 33 28 23 18 13 8 2 358 353 350 348 346 344 341 340 338 336 335 334
87 86 86 86 86 86 86 85 85 85 86 87 88 88 87 87 87 88 88 90 92 92 93 92 92 92 91 89 88 86 84 83 82 81 80 79 78 76 73 70 66 62 57 51 47 43 39 36 32 28 23 19 13 8 2 356 350 345 340 337 335 334 333 332 331 330 329 328 327
84 83 83 84 84 84 84 84 84 84 85 86 87 87 88 88 88 89 89 89 89 90 90 89 88 87 86 85 84 83 82 82 81 81 81 79 77 73 69 64 60 56 52 47 44 40 35 30 25 20 15 12 7 2 356 350 345 340 334 330 327 325 324 323 322 321 320 319 319
84 84 84 85 85 86 86 86 86 86 87 88 89 89 89 89 90 90 89 87 88 88 88 86 84 83 82 82 81 80 79 80 80 79 78 76 72 68 63 59 55 51 48 46 44 40 35 28 21 15 11 7 4 360 355 350 346 341 336 331 327 324 321 319 317 315 314 314 314
83 84 85 86 86 87 87 87 88 88 89 89 89 89 89 90 90 89 88 87 87 86 84 81 79 78 77 76 76 75 75 76 75 74 72 70 66 63 59 54 49 46 45 46 44 40 33 26 17 11 6 3 0 358 355 352 349 345 341 337 332 327 323 320 317 315 314 313 312
82 83 84 85 87 88 88 88 89 89 89 88 88 89 89 89 88 87 86 85 84 80 77 75 72 71 70 70 70 71 72 72 71 69 67 65 62 58 53 47 40 38 39 42 40 36 28 21 13 6 1 357 356 354 352 351 349 347 344 341 337 332 328 324 320 317 315 313 312
83 83 84 86 88 89 91 92 92 92 91 90 89 89 88 87 86 85 83 80 77 74 72 69 67 65 65 65 66 67 67 68 67 65 63 60 58 53 45 36 30 30 34 38 36 30 22 14 7 1 356 354 352 351 349 348 347 346 345 343 339 336 332 328 324 320 317 314 312
82 83 84 85 88 90 91 92 93 92 91 90 89 88 87 86 84 81 78 75 72 71 69 67 65 63 62 61 61 60 59 59 59 58 57 55 51 46 38 30 26 28 34 38 34 26 15 7 2 357 354 351 349 348 347 346 346 346 345 344 341 338 335 331 328 325 323 320 317
81 82 83 84 86 87 88 87 86 86 86 85 85 84 82 81 80 78 76 74 72 71 69 68 66 63 60 58 55 53 52 50 49 49 48 46 43 39 33 29 28 32 38 38 29 19 9 4 0 356 352 348 346 345 344 345 345 345 345 344 342 340 338 335 334 332 330 329 326
81 82 82 83 84 84 83 82 81 81 81 81 80 78 76 76 77 77 76 74 73 71 70 67 64 59 56 53 51 49 47 46 44 42 40 39 37 34 32 30 30 35 39 35 23 14 8 6 4 0 354 347 343 343 345 345 345 344 344 343 343 342 342 341 341 340 339 338 336
80 80 81 82 81 80 79 79 79 78 78 77 75 74 73 74 74 74 73 71 69 67 64 60 56 52 50 48 47 45 44 43 42 41 39 37 36 34 32 31 31 35 36 29 17 11 9 8 6 4 359 349 344 344 347 347 345 344 343 343 343 343 344 346 346 346 345 344 343
77 78 79 79 78 77 77 77 76 75 74 73 72 72 71 71 70 68 66 64 62 60 56 53 50 48 46 45 44 44 43 43 42 41 41 39 38 35 33 30 31 34 34 25 15 10 9 8 6 5 3 357 350 349 350 348 346 345 344 343 343 344 345 347 348 348 348 348 347
74 75 76 75 75 74 74 74 73 72 72 71 70 69 68 66 64 62 59 57 55 52 49 47 45 45 44 44 43 43 43 42 41 40 38 37 36 33 29 27 27 32 31 23 13 9 8 8 6 6 5 3 356 353 352 349 347 346 345 344 344 345 346 347 348 349 349 349 348
71 72 73 73 73 72 72 71 71 71 70 69 68 66 64 61 58 56 54 52 50 48 47 45 44 44 43 43 43 42 42 41 38 36 33 31 29 26 24 22 24 29 30 22 12 8 8 8 7 7 8 6 360 354 351 348 347 348 348 348 348 349 349 350 350 351 351 350 349
69 69 70 70 70 70 69 69 70 69 68 66 63 61 59 57 55 53 51 49 48 47 46 45 44 45 44 44 43 42 41 38 35 32 28 25 23 22 21 21 24 29 29 21 12 9 9 8 7 10 12 7 359 353 348 346 348 350 353 354 355 355 355 354 353 353 352 351 351
67 67 67 67 67 66 67 67 66 65 63 61 59 57 56 55 53 52 50 48 47 45 44 43 44 44 44 44 43 42 39 36 32 29 25 23 22 22 22 24 28 32 29 20 12 10 10 9 9 13 14 6 355 347 344 345 349 354 358 1 2 1 360 358 356 355 353 352 352
65 65 65 64 64 63 63 63 62 61 60 58 56 54 53 53 52 51 49 47 45 44 44 44 44 45 46 45 43 42 38 35 31 28 26 25 25 26 28 31 34 35 30 20 14 13 12 11 12 15 14 2 354 348 345 347 353 358 3 5 5 4 1 359 357 355 354 353 352
64 64 63 62 62 61 60 59 58 58 57 56 54 53 52 51 50 50 49 48 47 48 48 49 50 51 50 48 46 43 39 35 31 30 30 31 33 34 36 37 39 38 33 23 18 15 15 12 11 9 5 360 357 354 353 354 359 3 5 5 4 1 359 357 355 355 355 354 354
63 63 62 61 60 59 58 57 57 57 56 56 55 54 53 52 52 52 52 52 52 54 56 56 57 56 55 51 47 43 39 37 35 35 37 39 40 41 41 41 41 40 35 25 20 17 17 15 11 7 3 1 2 4 5 5 6 6 5 3 1 358 355 354 354 354 355 355 355
61 62 61 60 60 59 58 57 57 57 57 57 57 56 55 55 55 55 55 56 57 59 60 60 59 56 53 49 45 42 40 39 40 41 42 43 43 42 41 41 41 40 35 26 20 18 18 16 12 8 5 5 8 15 17 14 10 7 4 2 359 355 353 352 352 353 354 354 354
58 59 59 59 59 58 58 58 58 58 59 59 58 58 57 57 57 56 55 56 58 60 59 57 55 52 49 46 45 44 43 43 43 44 44 44 43 41 40 40 40 39 33 24 19 17 17 15 11 9 7 9 17 24 23 16 10 6 2 359 356 353 351 351 352 353 353 353 353
55 56 57 58 58 58 58 57 58 59 60 59 59 58 58 57 57 56 54 54 56 57 56 53 51 48 46 45 46 48 48 47 46 44 43 43 41 39 38 38 38 36 30 22 18 15 14 12 9 7 7 14 24 27 24 15 7 1 357 353 349 348 348 350 352 353 354 354 353
54 54 55 57 57 58 58 58 59 59 60 60 60 59 58 57 56 55 54 52 54 54 53 52 49 47 45 45 48 50 51 50 46 43 41 40 38 36 35 34 33 31 27 21 16 12 10 9 7 5 6 15 25 26 19 10 1 354 348 343 339 338 342 349 353 355 354 353 351
53 53 55 56 57 58 59 60 60 60 60 60 59 58 57 56 55 53 52 51 51 52 52 52 50 48 46 46 48 49 48 46 43 40 37 35 33 31 30 28 26 24 22 20 14 10 7 6 4 2 4 11 19 19 12 1 351 344 338 334 330 332 339 351 356 356 353 349 345
53 54 55 56 57 58 58 59 60 60 59 59 58 57 55 54 52 50 50 51 52 53 54 54 52 50 48 47 46 45 42 39 37 35 32 30 27 25 23 22 20 19 18 17 13 8 4 4 3 1 3 7 11 9 2 351 341 334 331 331 335 342 352 359 358 354 349 344 340
Height
738 739 740 741 742 742 743 743 743 744 745 746 746 747 747 748 749 750 750 750 750 751 752 752 753 753 755 756 757 758 758 759 760 761 761 762 762 762 762 763 763 764 765 765 766 767 767 767 767 767 767 767 768 768 768 768 768 769 769 768 768 768 767 767 767 766 766 766 766
738 739 740 741 741 741 742 742 743 744 745 745 746 747 747 748 749 749 750 750 750 751 752 752 753 754 755 756 757 757 758 759 760 760 761 761 761 762 762 762 763 764 764 765 765 766 766 766 766 767 767 767 767 768 768 768 768 768 768 768 767 767 767 767 766 766 766 765 765
737 739 740 740 740 741 742 742 743 744 744 745 746 747 747 748 749 749 749 749 750 751 752 753 754 754 755 755 756 757 757 758 759 760 760 760 761 761 762 762 763 763 764 764 765 765 765 766 766 766 767 767 767 768 768 768 768 768 768 767 767 767 767 767 766 766 766 765 765
737 737 738 739 739 741 742 742 743 743 744 745 746 747 748 748 749 749 749 750 750 752 753 754 754 755 755 755 756 757 757 758 759 759 759 760 761 761 762 762 763 763 763 764 764 765 765 766 766 766 767 767 768 768 768 767 767 767 767 767 767 767 767 767 767 767 767 766 766
735 736 737 738 740 741 742 742 742 743 744 745 746 747 748 749 749 750 750 750 751 752 753 755 755 756 755 755 756 756 757 758 758 759 759 760 761 761 762 762 762 763 763 763 764 765 766 766 767 767 767 767 767 767 767 767 767 767 767 767 767 767 767 767 767 767 767 767 767
734 735 737 738 740 741 742 742 743 743 744 746 747 747 748 749 750 750 751 752 752 753 754 756 757 756 755 755 756 756 757 757 758 759 760 760 761 762 762 762 762 763 763 764 765 766 766 767 767 767 767 767 767 766 767 767 767 767 767 767 767 767 767 768 768 768 768 768 767
733 734 737 739 741 741 742 742 743 744 745 746 747 748 749 749 750 751 752 752 753 754 755 757 757 756 755 755 756 756 757 758 759 759 760 761 761 762 762 763 764 764 765 765 766 766 767 767 767 766 766 766 766 766 767 767 767 767 767 767 767 768 768 769 769 769 768 768 767
733 735 737 739 741 742 742 743 743 744 745 747 748 749 749 750 751 751 752 753 754 755 757 758 757 756 756 756 756 757 757 758 759 760 761 761 762 763 764 764 765 765 766 766 767 767 767 767 766 766 765 765 766 767 767 767 767 767 767 767 768 768 769 769 769 769 769 768 768
735 737 739 740 742 742 743 744 744 745 746 747 749 750 750 751 751 751 752 754 755 757 758 758 757 757 757 757 757 757 758 759 759 760 761 762 763 764 765 765 765 766 766 766 767 766 766 766 765 765 765 765 766 767 767 767 767 767 767 768 768 769 769 769 769 769 769 768 768
736 738 740 742 743 743 744 745 745 746 746 748 749 750 751 751 751 752 753 755 757 758 759 758 758 758 758 758 758 758 758 759 760 761 762 763 764 764 765 765 765 766 766 766 766 766 765 765 765 765 765 766 766 767 767 767 768 768 768 768 768 769 769 769 769 769 768 768 768
738 740 742 743 744 745 746 746 747 747 747 748 750 751 751 752 752 753 755 756 757 758 758 758 758 759 759 758 758 758 759 760 761 762 762 763 764 764 765 765 765 765 765 765 765 765 765 765 765 765 766 766 767 767 767 768 768 768 768 768 768 769 769 769 769 769 769 768 768
740 741 743 744 746 746 747 747 748 748 749 749 751 752 752 753 754 755 756 757 757 758 759 759 760 759 759 759 759 759 760 761 762 762 763 763 764 764 764 765 765 764 764 764 765 765 765 765 766 766 766 767 767 768 768 768 768 768 768 768 768 769 769 769 769 769 769 769 768
741 743 744 746 747 747 748 749 749 750 750 751 752 752 753 754 755 756 757 757 758 759 760 761 761 761 760 759 760 761 761 762 762 762 763 763 763 763 764 764 764 764 764 765 765 765 766 766 766 767 767 767 768 768 768 769 768 768 768 768 768 769 769 769 769 769 769 769 768
743 744 746 747 748 749 749 750 751 751 752 752 753 753 754 755 757 757 758 758 759 760 761 762 762 762 761 761 762 762 762 762 762 762 762 763 763 763 763 764 764 765 765 766 766 767 767 767 767 767 767 768 768 768 769 769 768 768 768 768 769 769 769 769 769 769 769 769 768
745 747 748 749 749 750 750 751 752 753 753 753 754 755 756 757 758 759 759 760 760 762 762 763 763 763 763 762 762 762 762 762 762 762 762 762 763 763 764 765 765 766 767 767 767 767 767 767 767 767 767 768 768 768 768 768 768 768 769 769 769 769 769 769 769 769 769 768 768
747 749 750 750 751 751 752 752 753 754 754 755 756 757 757 758 760 760 761 761 762 763 764 764 764 764 764 763 763 762 762 762 762 762 762 763 764 764 765 766 766 767 767 767 767 768 768 768 768 768 768 768 768 768 768 768 768 769 769 769 769 769 769 769 769 769 768 768 767
750 751 752 752 752 752 753 754 755 755 755 756 757 758 759 760 761 762 762 763 764 765 766 766 766 765 764 763 763 762 762 762 762 762 763 764 765 766 766 766 767 767 767 768 768 768 768 768 768 768 768 768 768 768 768 768 768 769 769 769 769 769 769 769 768 768 768 767 767
752 753 754 754 754 754 755 755 756 757 757 758 759 760 761 762 762 763 764 765 767 767 767 767 766 765 764 763 762 762 762 762 763 764 765 766 766 766 766 766 767 767 767 768 768 768 768 768 768 768 768 768 768 768 768 768 768 768 768 768 769 769 768 768 768 768 767 767 767
755 756 756 756 756 756 757 757 758 759 760 760 761 762 763 763 764 765 767 768 769 769 768 767 766 765 764 763 763 763 763 764 765 766 766 766 766 766 766 766 767 767 768 768 769 768 768 768 768 768 768 768 768 768 768 768 768 768 768 768 768 768 768 768 768 767 767 766 766
757 758 758 758 758 758 759 760 761 762 762 763 763 764 765 766 767 768 769 770 770 769 768 767 766 765 765 764 764 764 765 766 766 767 766 766 766 765 765 766 767 768 769 769 769 768 768 768 768 768 768 768 768 768 768 768 767 767 767 767 767 767 767 767 767 767 766 765 765
759 760 760 760 760 760 761 762 763 764 764 765 766 766 767 768 769 769 770 771 770 769 768 767 766 766 765 765 765 765 766 767 767 767 766 765 765 765 766 767 768 769 769 769 769 768 768 768 768 768 768 768 768 768 767 767 767 767 767 767 767 767 767 767 767 766 765 765 764
761 761 761 761 761 761 762 763 764 766 766 767 767 768 768 769 770 770 770 770 769 768 767 767 767 766 766 765 766 767 767 767 767 766 766 765 765 766 767 768 769 769 769 769 769 768 768 768 768 768 768 768 768 767 767 767 767 767 766 766 766 766 766 766 766 765 764 763 763
762 762 762 762 762 762 763 765 766 767 767 768 768 768 769 769 769 769 769 769 768 767 767 767 767 767 767 767 768 768 768 768 767 766 765 765 765 767 768 769 769 769 769 769 768 768 769 769 769 769 768 768 767 767 767 767 767 766 766 766 765 765 765 765 765 764 763 762 762
763 763 763 764 764 765 766 767 767 768 768 769 769 769 769 769 769 769 769 768 768 768 768 768 768 769 769 769 769 769 768 767 766 766 766 766 767 767 768 769 769 769 769 769 769 769 769 769 769 769 768 768 767 767 767 767 766 766 766 765 765 765 764 764 764 763 762 762 761
765 765 766 766 767 768 768 768 768 768 769 769 769 769 769 769 768 769 769 769 769 770 770 770 771 771 770 770 769 768 767 767 766 766 766 767 767 768 769 769 769 769 769 769 769 769 769 769 769 769 768 768 767 767 767 766 766 766 766 765 765 764 764 763 763 762 762 761 761
767 767 768 769 769 769 769 769 769 769 769 769 769 770 770 770 770 770 771 771 772 772 772 772 771 771 770 769 768 767 767 766 766 767 767 768 768 769 769 769 769 769 769 769 769 769 769 769 769 769 768 767 767 766 766 766 766 766 766 765 765 765 764 763 762 762 761 761 760
768 769 770 770 769 769 769 769 769 769 770 770 771 771 771 771 771 772 772 772 773 772 772 772 771 770 769 768 767 767 767 767 767 768 768 769 769 769 769 769 769 769 768 769 769 769 769 769 768 768 768 767 766 766 766 766 766 766 766 765 765 765 764 763 762 762 761 760 759
770 770 770 770 769 769 770 770 770 771 771 772 772 772 772 772 772 772 773 773 772 772 771 771 770 769 769 768 768 768 768 768 769 769 769 770 770 769 769 769 769 768 768 768 768 768 768 768 768 768 768 767 766 765 766 766 766 766 766 765 765 764 764 763 762 762 761 760 759
771 771 770 770 770 771 771 771 772 772 772 773 773 773 773 773 772 772 772 772 772 771 771 771 770 770 769 769 769 769 769 770 770 770 770 770 770 770 769 769 769 768 768 768 768 768 768 768 768 768 768 767 766 765 766 766 766 766 766 765 765 764 764 763 762 761 761 760 759
772 772 771 771 772 772 772 773 773 773 774 774 774 773 773 773 772 772 772 772 772 772 772 772 771 771 770 771 771 771 771 771 771 771 771 770 770 770 769 769 768 768 768 768 769 769 768 768 768 768 767 767 766 766 766 767 767 767 766 765 765 764 763 762 762 761 760 759 758
773 773 773 773 773 773 774 774 774 774 774 774 774 773 773 773 773 773 773 773 773 773 772 772 772 772 772 772 772 772 772 772 772 771 771 771 770 770 769 769 768 768 768 769 769 768 768 768 768 768 767 767 766 767 767 767 767 767 766 765 764 764 763 762 761 761 760 759 758
775 774 774 774 774 775 775 775 775 775 775 774 774 774 774 774 774 774 774 774 774 773 773 773 772 772 772 772 772 772 772 772 772 772 771 771 770 770 769 769 769 769 769 769 769 769 768 768 768 768 767 767 767 767 767 767 767 766 766 765 764 763 763 762 761 760 759 758 757
776 775 775 775 776 776 776 776 776 775 775 775 775 774 774 774 774 774 774 774 774 774 774 773 773 773 773 773 773 773 773 773 772 772 772 771 771 770 770 770 769 769 769 769 769 769 768 768 768 768 767 767 767 767 767 767 767 766 765 765 764 763 762 762 761 760 759 758 757
777 777 776 776 777 777 777 776 776 776 776 775 775 775 775 775 775 775 775 775 775 775 775 774 774 774 775 775 774 774 774 774 773 773 772 772 771 771 770 770 770 769 769 769 769 769 769 768 768 768 767 767 767 767 767 767 766 766 765 764 763 762 762 761 760 759 758 757 757
778 778 777 777 777 777 777 777 777 777 776 776 776 776 776 776 776 776 776 777 776 776 776 776 776 776 776 776 775 775 774 774 773 773 772 772 772 771 771 770 770 770 769 769 769 769 769 768 768 768 767 767 767 767 766 766 766 765 764 764 763 762 761 760 759 758 758 757 756
779 779 779 778 778 778 778 778 778 777 777 777 777 777 777 777 777 777 777 777 777 777 777 777 777 776 776 776 775 775 774 774 773 773 772 772 772 771 771 770 770 770 769 769 769 769 769 769 768 768 767 767 767 766 766 766 765 764 764 763 762 761 760 759 758 758 757 757 756
780 780 779 779 779 779 779 779 778 778 778 778 778 778 778 778 778 778 778 778 777 777 777 777 777 776 776 776 775 775 775 774 774 773 773 772 772 772 771 771 770 770 770 770 770 769 769 769 769 768 767 767 766 766 766 765 765 764 763 762 761 761 760 759 758 757 757 756 756
781 780 780 780 780 780 779 779 779 779 779 779 779 779 779 779 779 779 779 778 778 777 777 777 777 776 776 776 776 775 775 775 774 774 773 773 772 772 771 771 770 770 770 770 770 770 770 769 769 768 768 767 766 766 766 765 764 763 762 762 761 760 760 759 758 757 757 756 756
782 781 781 781 780 780 780 780 780 780 780 780 780 780 780 780 780 779 779 779 778 778 777 777 777 777 777 776 776 776 775 775 775 774 774 773 772 772 772 771 771 770 770 770 770 770 770 770 769 769 768 767 766 766 765 765 764 763 762 762 761 760 760 759 758 758 757 757 756
782 782 782 782 781 781 781 781 781 781 781 781 781 781 780 780 780 780 780 779 779 778 778 778 777 777 777 777 776 776 776 775 775 774 774 773 773 772 772 771 771 771 771 770 770 770 770 770 769 769 768 767 766 766 765 765 764 763 762 761 760 760 759 759 759 758 757 757 756
783 783 782 782 782 782 782 782 782 782 782 782 781 781 781 781 781 781 780 780 779 779 779 778 778 778 777 777 777 777 776 776 775 775 774 773 773 772 772 772 771 771 771 771 771 771 770 770 770 769 768 767 767 766 766 765 764 763 762 761 760 760 759 759 758 758 757 756 755